Flag for Canada Weather past 2 weeks in Cambridge, Ontario, Canada

Now
64 °F

Clear.


Feels Like: 64 °F
Forecast: 56 / 78 °F
Wind: 5 mph from South

Location: Waterloo Well

Current Time: May 30, 2015 at 1:22:15 AM

Latest Report: May 30, 2015 at 12:00 AM


Visibility: 9 mi

Pressure: 30.01 "Hg

Humidity: 78%

Dew point: 57 °F

Location of CambridgeLocation

Historic Weather in Cambridge — Graph

°F

Cambridge temperature yesterday

Maximum temperature yesterday: 84 °F (at 4:00 PM)
Minimum temperature yesterday: 52 °F (at 4:00 AM)
Average temperature yesterday: 68 °F

Past Weeks' High & Low Weather Summary

 TemperatureHumidityPressure
High84 °F (May 18, 3:00 PM)94% (May 16, 1:00 AM)30.42 "Hg (May 16, 1:00 AM)
Low27 °F (May 23, 6:00 AM)20% (May 23, 3:00 PM)29.87 "Hg (May 21, 4:59 PM)
Average62 °F61%30.09 "Hg
* Reported Midnight between May 14 and May 15 — Midnight between May 29 and May 30, Cambridge, Weather by CustomWeather, © 2015

Note: Actual official high and low records may vary slightly from our data, if they occured in-between our weather recording intervals... More about our weather records

Advertising

Cambridge weather history for previous 24 hours

 ConditionsComfort  
Time TempWeatherWind HumidityBarometerVisibility
12:00 AM
Sat, May 30
64 °FClear.5 mph78%30.01 "Hg9 mi
11:00 PM
Fri, May 29
64 °FClear.6 mph73%30.04 "Hg9 mi
10:00 PM66 °FClear.5 mph68%30.05 "Hg9 mi
9:00 PM68 °FScattered clouds.8 mph64%30.03 "Hg9 mi
8:00 PM72 °FPartly sunny.8 mph61%30.05 "Hg9 mi
7:00 PM73 °FPartly sunny.10 mph57%30.06 "Hg9 mi
6:00 PM77 °FPassing clouds.12 mph54%30.07 "Hg9 mi
5:00 PM81 °FPartly sunny.10 mph39%30.09 "Hg9 mi
4:00 PM84 °FScattered clouds.10 mph35%30.11 "Hg9 mi
3:00 PM82 °FSunny.10 mph37%30.13 "Hg9 mi
2:00 PM81 °FSunny.10 mph39%30.15 "Hg9 mi
1:00 PM79 °FSunny.9 mph45%30.17 "Hg9 mi
12:00 PM77 °FSunny.8 mph47%30.19 "Hg9 mi
11:00 AM75 °FSunny.13 mph50%30.19 "Hg9 mi
10:00 AM73 °FSunny.12 mph53%30.20 "Hg9 mi
9:00 AM70 °FSunny.N/A57%30.22 "Hg9 mi
8:00 AM64 °FSunny.5 mph73%30.23 "Hg9 mi
7:00 AM55 °FSunny.5 mph88%30.24 "Hg9 mi
6:00 AM52 °FClear.3 mph94%30.24 "Hg9 mi
5:00 AM52 °FClear.2 mph94%30.24 "Hg9 mi
4:00 AM52 °FClear.3 mph94%30.24 "Hg9 mi
3:00 AM54 °FClear.2 mph88%30.24 "Hg9 mi
2:00 AM59 °FClear.No wind82%30.24 "Hg9 mi
1:00 AM59 °FClear.5 mph77%30.25 "Hg9 mi
Weather by CustomWeather, © 2015

See weather overviewHow to use our weather pages